Volver al catálogo

STARLINK-33913

ActivoComunicacionesVLEO
NORAD 65215·PAYLOAD·🇺🇸 United States

Lanzado Aug 14, 2025 desde Cape Canaveral Space Force Station

Loading…

Próximos Pases (próximas 24 horas)

TLE

ActualizadoSource: CelesTrak SupGP

Época: Sep 14, 2026, 21:34 UTC

1 65215C 25176T   26257.89909722 -.00009953  00000+0 -29409-3 0  2579
2 65215  53.1592 352.0779 0001145  79.5888 313.0922 15.34393908    11

Sigue STARLINK-33913 en tiempo real con AllMySat

Download on the App Store